Flag for Denmark Weather past 2 weeks in Randers, Denmark

Now
28 °F

Passing clouds.


Feels Like: 21 °F
Forecast: 14 / 30 °F
Wind: 7 mph from Northeast

Location: Tirstrup

Current Time: Dec 28, 2014 at 1:20:51 AM

Latest Report: Dec 28, 2014 at 12:50 AM


Visibility: N/A

Pressure: 30.09 "Hg

Humidity: 80%

Dew point: 23 °F

Location of RandersLocation

Historic Weather in Randers — Graph

°F

Randers temperature yesterday

Maximum temperature yesterday: 32 °F (at 1:20 AM)
Minimum temperature yesterday: 27 °F (at 12:20 AM)
Average temperature yesterday: 31 °F

Past Weeks' High & Low Weather Summary

 TemperatureHumidityPressure
High52 °F (Dec 18, 11:50 PM)94% (Dec 18, 1:50 PM)30.30 "Hg (Dec 18, 1:50 PM)
Low16 °F (Dec 26, 6:50 AM)64% (Dec 25, 3:50 PM)29.27 "Hg (Dec 13, 5:20 AM)
Average39 °F82%29.67 "Hg
* Reported Dec 13 5:20 AM — Dec 28 12:20 AM, Randers, Weather by CustomWeather, © 2014

Note: Actual official high and low records may vary slightly from our data, if they occured in-between our weather recording intervals... More about our weather records

Advertising

Randers weather history for previous 24 hours

 ConditionsComfort  
Time TempWeatherWind HumidityBarometerVisibility
12:20 AM
Dec 28
30 °FPassing clouds.7 mph80%30.09 "HgN/A
11:50 PM
Dec 27
32 °FPassing clouds.7 mph80%30.09 "HgN/A
11:20 PM32 °FPassing clouds.7 mph80%30.09 "HgN/A
10:50 PM32 °FPassing clouds.6 mph80%30.07 "HgN/A
10:20 PM32 °FOvercast.7 mph87%30.07 "HgN/A
9:50 PM32 °FPassing clouds.7 mph87%30.07 "HgN/A
9:20 PM32 °FPassing clouds.8 mph93%30.04 "HgN/A
8:50 PM32 °FPassing clouds.6 mph93%30.04 "HgN/A
8:20 PM32 °FOvercast.6 mph93%30.01 "HgN/A
7:50 PM32 °FPassing clouds.6 mph93%30.01 "HgN/A
7:20 PM32 °FPassing clouds.5 mph93%30.01 "HgN/A
6:50 PM32 °FSnow flurries. Passing clouds.5 mph93%29.98 "Hg1 mi
6:20 PM30 °FLight snow. Low clouds.3 mph93%29.98 "Hg1 mi
5:50 PM30 °FIce fog.2 mph93%29.98 "Hg3 mi
5:20 PM30 °FIce fog.2 mph93%29.95 "Hg1 mi
4:50 PM30 °FIce fog.1 mph93%29.95 "Hg0 mi
4:20 PM30 °FIce fog.2 mph93%29.95 "Hg1 mi
3:50 PM30 °FIce fog.2 mph93%29.95 "Hg3 mi
3:20 PM32 °FBroken clouds.1 mph93%29.92 "Hg3 mi
2:50 PM32 °FMostly cloudy.3 mph93%29.92 "Hg3 mi
2:20 PM30 °FIce fog.2 mph93%29.92 "Hg2 mi
1:50 PM30 °FIce fog.3 mph93%29.92 "Hg2 mi
1:20 PM30 °FIce fog.2 mph93%29.92 "Hg3 mi
12:50 PM30 °FIce fog.2 mph93%29.92 "Hg2 mi
12:20 PM30 °FIce fog.2 mph93%29.92 "Hg1 mi
11:50 AM30 °FIce fog.2 mph93%29.92 "Hg1 mi
11:20 AM30 °FIce fog.3 mph93%29.92 "Hg0 mi
10:50 AM30 °FIce fog.2 mph93%29.92 "Hg0 mi
10:20 AM30 °FIce fog.1 mph93%29.92 "Hg0 mi
9:50 AM30 °FIce fog.3 mph93%29.92 "Hg0 mi
9:20 AM30 °FIce fog.2 mph93%29.92 "Hg0 mi
8:50 AM32 °FIce fog.1 mph93%29.92 "Hg1 mi
8:20 AM32 °FIce fog.1 mph93%29.92 "Hg1 mi
7:50 AM32 °FIce fog.3 mph93%29.92 "Hg1 mi
7:20 AM32 °FIce fog.5 mph93%29.92 "Hg1 mi
6:50 AM32 °FIce fog.5 mph93%29.92 "Hg1 mi
6:20 AM32 °FIce fog.5 mph93%29.92 "Hg1 mi
5:50 AM32 °FFog.6 mph93%29.95 "Hg1 mi
5:20 AM32 °FFog.5 mph93%29.95 "Hg1 mi
4:20 AM32 °FFog.6 mph93%29.98 "Hg1 mi
3:50 AM32 °FFog.5 mph93%29.98 "Hg1 mi
3:20 AM32 °FIce fog.3 mph93%29.98 "Hg0 mi
2:50 AM32 °FIce fog.3 mph93%30.01 "Hg0 mi
2:20 AM32 °FIce fog.5 mph93%30.01 "Hg1 mi
1:50 AM32 °FIce fog.6 mph93%30.01 "Hg1 mi
1:20 AM32 °FIce fog.5 mph87%30.04 "Hg1 mi
Weather by CustomWeather, © 2014

See weather overviewHow to use our weather pages